Theta_e
333 333 331 332 337 339 340 349 345 347 351 357 353 352 352 354 357 357 358 361 358 353 351 352 354 354 348 349 349 349 348 349
333 335 333 332 335 336 341 351 352 344 346 349 354 345 351 354 355 359 361 360 358 358 353 355 352 350 349 352 350 352 346 343
334 334 334 333 333 338 347 351 346 358 357 352 354 354 351 358 358 359 360 360 358 357 355 354 356 359 356 354 352 351 342 339
329 330 331 333 336 333 341 350 355 356 357 355 354 354 356 354 361 361 360 360 358 357 355 356 354 357 358 356 352 351 350 345
332 335 334 337 339 336 336 350 358 360 356 336 332 333 333 353 354 360 362 361 360 358 356 352 352 356 356 356 354 352 348 346
329 328 330 333 339 342 344 348 345 334 331 336 338 332 329 341 347 353 353 354 358 353 352 351 354 354 353 353 350 347 345 340
326 326 326 328 329 332 335 338 344 344 336 339 338 332 335 341 346 349 351 353 352 352 351 353 354 351 349 349 348 345 342 340
323 324 324 324 327 328 329 329 330 338 345 349 343 330 334 345 345 348 351 349 350 351 350 351 351 349 347 346 345 345 342 340
321 320 321 321 323 324 325 324 326 327 328 331 339 342 342 335 341 340 340 342 346 347 346 345 345 346 346 343 341 339 338 338
317 317 319 319 321 322 322 321 323 323 326 325 332 335 345 335 334 338 334 338 341 340 341 340 342 341 342 343 340 335 333 334
315 314 315 317 318 320 322 322 322 322 322 322 323 324 324 322 324 326 326 327 329 339 339 341 340 338 336 338 338 336 329 332
314 315 315 317 316 319 320 321 319 319 320 317 318 316 315 318 319 322 321 324 328 325 328 331 332 330 329 330 333 332 330 326
313 313 315 316 317 318 319 321 320 319 319 318 315 315 314 315 317 316 318 320 320 321 322 321 321 323 323 324 325 326 329 327
314 315 315 315 315 315 317 317 317 317 317 316 316 314 313 313 312 312 311 313 314 317 313 316 316 317 318 319 320 322 323 325
312 312 312 313 312 314 314 314 314 316 315 314 313 312 311 309 309 306 306 307 309 309 309 310 310 312 313 315 317 318 321 322
311 311 311 311 312 313 312 312 312 313 313 312 311 310 307 306 306 305 304 305 305 307 307 307 309 310 312 313 314 315 317 320
310 311 311 311 311 312 310 310 310 311 310 309 308 306 305 304 306 307 305 306 305 307 308 308 309 310 312 313 312 312 313 317
311 310 311 311 311 310 311 311 309 308 307 306 304 304 306 306 307 306 306 307 307 308 309 310 310 308 313 313 312 311 312 315
309 309 310 310 309 308 308 307 307 305 304 305 305 306 306 306 306 306 307 308 309 308 309 310 309 310 309 312 312 313 313 314
309 309 309 308 306 305 305 305 304 304 305 306 305 307 307 307 306 307 309 308 308 309 309 310 309 309 308 310 309 311 311 311
Wind_Speed
16 16 16 16 16 19 24 10 8 8 5 3 2 3 4 7 11 10 7 1 3 4 4 6 6 11 5 8 6 6 3 5
11 16 19 9 11 11 19 17 8 2 1 3 4 3 1 13 7 7 3 4 4 2 1 4 5 5 6 3 3 9 5 4
10 5 11 13 7 6 5 7 12 4 5 4 5 1 2 1 7 6 1 3 4 2 3 4 3 1 2 2 2 5 4 3
11 8 11 10 10 12 14 15 9 1 3 8 10 10 7 6 1 5 4 2 3 3 3 5 0 2 2 3 4 2 3 3
16 15 12 8 12 8 7 11 3 2 5 13 10 10 22 7 4 7 2 3 2 2 5 4 3 1 2 4 3 3 2 4
17 16 10 11 13 10 12 11 12 13 11 7 5 11 19 21 24 13 5 4 1 4 4 4 5 4 4 4 4 3 2 3
15 15 14 15 14 14 13 13 10 4 4 4 9 13 10 13 11 7 5 9 10 5 4 4 2 3 3 3 1 2 3 2
13 16 13 14 13 13 12 12 14 11 6 4 5 8 8 6 5 5 9 9 9 6 6 5 3 3 4 3 3 1 3 3
14 12 13 14 13 13 14 13 13 11 11 7 5 4 4 3 3 8 9 9 11 8 6 7 7 5 3 4 3 4 3 4
12 13 12 13 13 13 15 14 15 11 6 6 3 5 1 5 5 6 8 9 6 6 6 7 8 7 7 4 3 3 3 4
12 13 11 11 11 12 12 11 12 12 13 8 8 6 8 9 8 6 8 12 12 7 8 5 5 6 7 8 5 6 6 5
10 11 11 10 10 10 9 10 10 11 13 12 13 10 9 8 9 9 10 11 10 12 11 11 9 7 9 10 10 8 7 7
10 9 10 11 10 10 10 10 11 13 13 12 9 9 7 8 7 11 9 10 12 12 12 11 10 8 7 7 9 9 7 6
7 8 8 10 11 11 9 12 12 11 10 10 10 10 11 9 11 10 11 10 10 10 15 13 14 13 11 8 8 7 8 8
6 8 9 10 10 11 10 12 11 10 12 13 13 13 12 12 12 10 13 10 10 12 15 13 12 12 12 12 10 10 7 7
7 9 8 9 10 11 11 11 12 12 12 12 10 12 9 9 11 9 8 8 9 13 11 12 14 14 12 11 10 9 9 6
5 5 8 8 10 12 12 12 11 12 13 12 13 12 12 9 10 8 7 8 8 11 10 10 12 12 12 11 8 10 10 7
6 6 9 9 10 11 11 11 11 12 12 11 9 8 8 8 7 8 10 9 8 11 11 10 10 13 11 12 8 9 10 7
7 7 10 11 12 13 12 12 12 11 10 8 7 8 7 7 8 9 9 9 9 10 9 9 9 8 11 12 10 8 9 7
7 8 11 11 12 13 12 11 12 10 9 9 11 9 9 7 7 7 9 9 8 9 7 8 8 9 8 8 9 9 9 7
Wind_Direction
96 75 43 9 3 13 355 20 18 40 35 135 333 34 344 222 206 199 219 226 196 213 176 183 206 213 225 216 226 233 327 37
117 148 140 103 18 358 331 332 314 165 188 92 68 89 348 253 207 196 207 216 201 240 358 178 201 157 207 99 105 47 356 55
135 105 102 126 142 192 216 189 267 315 289 191 153 255 236 219 178 180 249 353 68 17 22 329 308 94 15 11 166 145 179 179
90 99 137 178 170 152 206 196 200 74 330 348 5 334 310 301 182 118 126 332 23 348 243 226 176 21 357 21 344 330 134 203
53 43 44 9 222 228 229 229 167 151 54 53 53 12 8 270 123 87 329 84 357 258 293 320 316 68 122 241 240 176 179 219
53 50 36 23 39 45 25 31 58 67 81 55 46 33 20 341 334 29 16 294 33 326 325 15 13 358 346 335 326 15 360 11
49 53 42 36 33 29 35 28 26 29 96 108 88 62 69 300 290 347 338 360 15 8 335 334 21 319 291 280 237 185 276 228
53 47 51 49 45 40 42 36 19 9 28 122 88 112 173 226 308 2 8 12 10 358 331 350 339 336 313 345 336 1 257 272
71 63 51 44 44 44 35 34 32 26 16 17 29 357 56 24 341 27 10 356 7 350 358 350 345 332 327 326 337 325 293 279
76 62 63 52 43 33 27 22 34 28 25 10 11 17 39 57 347 75 359 350 18 357 358 351 360 334 325 324 318 286 278 292
86 83 69 64 54 40 36 29 24 23 8 5 11 19 21 19 348 4 3 350 339 347 333 324 347 348 330 339 329 317 307 299
63 57 67 71 71 76 54 47 38 26 21 20 18 12 4 354 354 356 343 322 354 357 356 10 16 0 4 356 357 340 323 305
58 72 51 57 51 52 48 37 36 28 26 25 13 10 359 343 340 339 313 358 349 350 2 358 349 343 339 350 345 342 325 306
58 46 56 50 43 37 45 29 32 23 19 16 12 8 351 347 349 349 356 348 347 351 5 355 352 345 336 327 323 322 320 321
61 43 25 53 29 35 27 29 18 15 16 14 12 12 355 353 7 353 352 336 343 340 348 341 335 328 325 325 324 311 301 305
71 46 25 20 27 36 32 15 15 15 17 14 5 9 3 355 355 341 326 326 327 334 336 334 325 317 314 321 316 306 296 304
117 188 58 28 21 39 26 15 9 16 9 10 13 3 356 344 332 326 323 327 326 336 323 317 303 314 313 309 310 309 311 303
95 58 63 44 28 26 29 16 10 18 11 10 357 348 336 335 326 329 330 324 322 321 310 305 314 330 328 326 308 310 310 316
38 46 61 38 26 18 19 8 13 10 5 355 343 352 342 347 346 343 335 324 313 305 328 323 341 338 347 345 350 355 360 14
7 36 52 36 25 16 10 5 13 8 0 4 358 359 352 355 351 332 324 334 330 322 328 333 334 340 330 340 353 346 350 346